Temp
60 60 60 60 59 59 59 59 59 60 60 60 60 60 60 60 60 59 61 68 67 69 69 74 74 73 74 72 74 73 64 62 63 63 69 77 76 81 84 81 83 86 86 87 82
59 59 59 59 59 59 59 59 59 59 59 60 60 59 59 60 56 55 66 69 70 71 68 70 70 72 70 69 71 69 63 64 70 72 72 78 76 78 78 80 81 83 89 89 89
59 59 59 59 59 58 58 58 59 59 59 59 59 59 59 60 55 62 70 69 70 72 69 70 70 71 67 70 69 69 63 71 72 74 75 75 78 81 78 76 82 81 83 87 88
58 58 58 58 58 58 58 58 58 59 59 58 58 59 59 57 54 65 69 67 68 72 68 67 66 65 64 63 70 64 68 71 73 74 73 71 78 76 78 80 86 86 85 85 85
57 58 58 57 58 58 58 58 58 58 58 58 59 59 57 54 58 67 67 66 68 67 64 63 63 65 62 65 68 64 69 71 72 73 73 74 72 74 76 82 85 85 84 83 84
57 57 57 57 57 57 57 57 57 57 58 58 59 58 53 52 67 66 65 65 64 64 63 65 63 67 63 64 65 71 70 70 72 71 71 69 72 74 76 81 80 81 82 85 85
57 56 56 57 57 57 57 57 57 57 59 60 59 59 50 58 66 67 64 63 62 63 61 64 68 62 65 61 69 68 62 66 67 70 68 72 66 69 76 80 78 80 82 84 85
56 56 56 56 56 57 57 57 57 58 60 60 60 57 52 64 67 64 65 64 64 64 61 65 65 62 62 66 65 61 62 55 67 67 69 69 61 76 81 78 78 80 82 82 84
56 56 56 56 56 57 56 56 58 60 60 60 56 53 55 67 62 69 66 63 67 66 62 66 63 59 62 55 54 58 53 55 60 69 67 65 63 74 80 77 76 78 81 82 83
56 56 55 56 56 56 55 56 59 60 60 61 59 51 59 60 67 68 72 66 62 62 61 59 59 55 56 54 45 51 51 56 57 65 65 63 64 72 76 75 75 77 78 79 80
56 55 55 55 55 55 55 62 58 56 56 52 53 53 58 64 68 64 69 64 61 58 52 56 51 47 53 55 57 57 55 55 60 66 62 61 64 69 73 73 74 76 77 78 78
55 55 55 54 55 54 56 56 55 55 47 56 55 54 59 62 53 63 67 55 54 49 53 50 45 54 56 56 53 53 51 51 58 61 60 62 62 68 68 69 72 73 74 75 77
54 54 54 54 54 55 55 58 61 60 46 50 56 56 61 61 56 58 62 58 52 49 51 46 51 56 53 52 50 51 49 51 52 57 61 58 56 60 68 70 72 74 74 74 74
54 54 54 54 53 52 56 59 59 58 42 46 53 59 62 62 53 66 64 58 52 48 51 49 56 51 51 49 53 46 56 54 53 51 47 59 46 59 65 66 69 71 72 72 74
54 54 54 54 49 52 57 58 58 56 30 50 53 67 62 55 57 58 64 57 49 49 50 47 49 49 49 50 55 49 57 55 54 51 51 52 47 55 64 62 66 70 70 73 76
54 54 54 50 51 54 57 57 57 41 28 44 52 50 51 54 55 59 58 58 57 49 51 50 57 53 53 56 56 58 54 53 53 51 40 49 48 52 59 63 67 71 74 75 76
53 53 53 54 56 56 56 56 40 33 47 41 42 48 47 46 49 51 49 46 40 35 36 46 47 54 56 50 55 53 48 38 35 36 36 52 47 53 64 66 66 69 71 74 76
52 51 52 55 57 55 56 48 31 38 39 48 45 46 42 47 47 47 46 43 45 38 35 32 31 46 52 51 49 49 48 41 31 35 40 50 43 54 65 69 71 72 71 73 75
50 53 55 58 57 56 53 36 37 39 43 41 44 39 40 45 44 44 44 43 45 46 35 35 33 47 51 53 54 49 43 54 43 44 42 47 52 61 65 65 70 69 71 71 72
48 52 56 58 57 56 47 38 40 46 46 44 35 40 36 40 40 41 40 46 45 49 48 42 34 44 46 52 54 51 56 42 45 34 34 44 46 52 58 63 65 65 66 69 71
49 53 58 56 58 49 37 38 42 48 48 42 39 38 40 38 40 39 40 47 48 47 49 45 40 41 46 40 42 48 46 47 48 47 39 40 47 60 61 62 61 64 67 70 71
46 46 57 57 45 38 39 40 44 45 49 45 45 42 38 39 37 38 38 44 51 49 42 45 39 35 40 50 51 49 46 45 40 40 45 44 45 62 63 62 63 63 67 71 71
42 42 55 55 37 38 41 41 43 44 44 43 41 44 43 38 33 38 42 50 50 47 44 45 39 32 38 44 47 44 46 47 46 45 40 40 45 63 64 64 64 63 67 70 71
44 40 46 47 43 38 35 39 38 47 45 43 41 44 40 39 42 37 39 46 49 48 48 47 40 36 31 37 41 38 43 45 44 39 42 43 47 56 59 59 61 63 65 69 71
41 38 40 36 40 39 38 38 36 38 44 45 41 40 36 33 38 37 41 43 45 45 45 43 36 40 41 41 41 40 40 42 41 44 39 45 47 53 57 57 60 62 66 68 70
39 39 42 38 39 38 39 38 38 40 39 39 37 41 41 35 38 33 38 37 34 40 38 43 35 40 37 42 41 38 42 43 43 44 44 45 45 56 58 60 62 63 65 66 68
41 42 40 39 38 36 38 39 39 40 43 44 42 41 39 43 46 47 46 44 39 36 36 36 37 34 31 40 39 34 42 44 45 48 48 42 50 57 56 58 60 61 62 63 65
MSLP
1021.38 1021.06 1020.69 1020.33 1020.03 1019.70 1019.34 1019.01 1018.72 1018.38 1017.98 1017.65 1017.30 1016.87 1016.34 1015.85 1015.41 1014.89 1013.97 1013.41 1013.16 1012.61 1012.65 1012.03 1011.41 1011.45 1011.53 1011.14 1011.05 1010.98 1010.16 1008.41 1007.97 1007.69 1006.79 1006.64 1006.05 1005.84 1005.46 1005.19 1004.96 1004.30 1004.35 1004.70 1004.55
1021.41 1020.95 1020.54 1020.20 1019.85 1019.51 1019.18 1018.84 1018.48 1018.08 1017.75 1017.44 1017.12 1016.78 1016.34 1015.96 1015.45 1014.51 1013.97 1013.36 1012.90 1012.65 1012.28 1011.63 1011.19 1011.10 1011.41 1010.88 1010.46 1009.98 1008.93 1007.54 1007.66 1007.18 1006.66 1006.42 1006.22 1005.97 1005.52 1004.97 1004.58 1004.33 1004.25 1004.30 1004.51
1021.23 1020.72 1020.25 1019.87 1019.50 1019.15 1018.87 1018.62 1018.30 1017.90 1017.57 1017.31 1017.02 1016.65 1016.21 1015.79 1015.02 1013.40 1013.35 1013.27 1012.88 1012.14 1012.09 1011.87 1011.53 1011.23 1010.76 1010.40 1009.64 1008.98 1007.73 1006.83 1006.88 1006.88 1006.77 1006.38 1005.85 1005.97 1005.48 1004.59 1004.20 1004.34 1004.29 1004.35 1004.53
1021.28 1020.80 1020.35 1019.89 1019.41 1018.99 1018.62 1018.26 1017.80 1017.42 1017.23 1017.08 1016.84 1016.51 1016.04 1015.59 1014.43 1013.27 1013.17 1013.15 1012.93 1012.27 1012.15 1011.82 1011.60 1010.99 1010.24 1009.25 1009.21 1008.26 1007.36 1007.08 1006.87 1007.01 1006.72 1006.22 1006.14 1005.57 1005.41 1004.10 1004.42 1004.35 1004.68 1004.74 1004.83
1021.28 1020.80 1020.28 1019.76 1019.21 1018.74 1018.31 1017.93 1017.59 1017.20 1016.95 1016.72 1016.48 1016.26 1015.90 1015.07 1013.68 1013.12 1013.09 1013.01 1012.70 1012.41 1012.26 1011.99 1011.38 1010.72 1009.42 1008.88 1008.99 1007.75 1006.96 1007.00 1006.88 1006.90 1006.66 1006.51 1005.64 1005.47 1004.71 1004.18 1004.56 1004.45 1004.33 1004.16 1004.26
1021.06 1020.58 1020.03 1019.47 1018.89 1018.32 1017.80 1017.25 1016.99 1016.86 1016.58 1016.37 1016.17 1016.25 1015.95 1014.41 1013.05 1013.08 1013.08 1012.86 1012.75 1012.52 1012.49 1012.08 1011.30 1010.85 1010.10 1008.93 1008.07 1006.80 1007.03 1006.77 1006.74 1006.60 1006.48 1006.14 1004.80 1005.12 1004.04 1003.99 1004.33 1004.03 1003.63 1003.44 1003.56
1020.88 1020.39 1019.88 1019.33 1018.70 1018.03 1017.37 1016.76 1016.43 1016.17 1016.09 1015.88 1015.97 1016.15 1015.78 1013.75 1012.89 1012.88 1012.89 1012.61 1012.68 1012.62 1012.35 1012.15 1011.63 1011.33 1009.94 1009.15 1008.16 1007.35 1006.99 1006.63 1006.25 1006.10 1005.74 1005.97 1003.85 1002.91 1003.84 1003.60 1003.31 1002.98 1002.85 1002.87 1002.75
1020.72 1020.22 1019.69 1019.10 1018.42 1017.71 1016.96 1016.26 1016.03 1015.77 1015.51 1015.66 1015.89 1015.99 1014.52 1013.00 1012.91 1012.70 1012.46 1012.26 1012.31 1012.42 1012.16 1011.77 1011.87 1011.57 1010.40 1009.17 1007.95 1007.41 1007.07 1006.16 1004.74 1005.64 1005.04 1005.47 1002.04 1000.41 1002.43 1002.64 1002.08 1001.63 1001.68 1002.04 1002.21
1020.45 1019.92 1019.47 1018.92 1018.19 1017.42 1016.66 1015.79 1015.60 1015.50 1015.54 1015.77 1016.03 1015.67 1013.51 1012.60 1012.53 1011.85 1012.17 1011.88 1011.68 1011.81 1011.56 1011.41 1011.47 1011.03 1010.15 1009.33 1008.18 1006.93 1005.09 1004.56 1004.43 1003.88 1004.29 1004.55 1001.14 1001.20 1001.66 1001.91 1001.40 1001.45 1001.29 1001.25 1001.32
1020.53 1019.97 1019.44 1018.89 1018.18 1017.39 1016.54 1015.69 1015.46 1015.70 1015.86 1015.88 1015.77 1015.66 1013.53 1012.48 1011.95 1011.57 1011.27 1011.51 1011.43 1011.38 1010.93 1011.07 1010.59 1009.80 1009.28 1008.17 1005.47 1004.96 1004.93 1003.57 1003.18 1003.61 1003.97 1003.58 1000.70 1001.81 1001.37 1001.51 1000.99 1000.92 1000.97 1000.96 1000.84
1020.43 1019.82 1019.28 1018.78 1018.13 1017.28 1016.37 1015.64 1015.88 1015.75 1015.50 1015.33 1015.10 1014.77 1013.49 1012.66 1012.19 1011.24 1011.00 1011.04 1011.14 1011.10 1010.33 1010.48 1009.99 1007.56 1007.25 1007.80 1006.92 1006.04 1005.24 1004.19 1003.79 1003.79 1003.77 1003.01 1001.09 1001.06 1001.48 1001.17 1000.78 1000.20 999.86 999.88 1000.07
1020.21 1019.60 1019.00 1018.52 1017.91 1017.15 1016.62 1016.27 1016.65 1017.07 1015.86 1014.73 1014.44 1014.34 1013.28 1013.12 1012.20 1010.80 1010.95 1011.14 1010.88 1010.34 1010.21 1010.18 1008.72 1008.14 1008.43 1007.86 1007.24 1006.72 1005.82 1005.12 1004.55 1004.36 1003.96 1002.76 1001.33 1001.28 1001.54 1000.91 1000.39 1000.16 999.92 999.79 999.88
1019.92 1019.40 1018.72 1018.26 1017.68 1017.25 1016.92 1016.67 1016.72 1016.91 1016.59 1014.57 1013.71 1013.23 1012.33 1012.45 1011.35 1010.65 1010.71 1010.63 1010.54 1010.22 1009.60 1009.09 1008.23 1008.19 1007.98 1007.42 1006.86 1006.32 1005.84 1005.64 1005.32 1004.90 1004.09 1003.52 1001.77 1001.32 1000.94 1000.75 1000.41 999.98 999.89 999.83 999.87
1019.55 1018.99 1018.42 1017.92 1017.81 1017.72 1017.01 1016.99 1017.09 1017.08 1016.15 1014.33 1013.09 1012.27 1011.88 1011.51 1010.99 1010.15 1010.32 1010.56 1010.28 1009.75 1009.24 1008.67 1007.78 1007.66 1007.26 1006.57 1006.54 1005.83 1006.09 1005.98 1005.71 1005.50 1003.82 1003.74 1000.94 1000.33 1000.03 999.71 999.64 999.54 999.34 999.16 999.26
1019.23 1018.43 1017.97 1017.91 1018.00 1017.64 1017.21 1017.14 1017.12 1017.12 1015.59 1013.87 1012.68 1012.08 1011.95 1011.67 1010.92 1010.06 1010.21 1010.33 1009.96 1009.74 1009.53 1007.65 1007.60 1007.13 1006.28 1006.26 1006.14 1005.66 1005.93 1005.70 1005.51 1005.08 1004.70 1003.68 1002.77 998.87 1000.01 998.95 998.83 998.90 998.82 998.72 998.36
1018.62 1017.86 1017.49 1017.92 1018.10 1017.47 1017.23 1017.13 1016.97 1016.52 1014.91 1013.70 1013.08 1012.56 1012.10 1011.47 1010.91 1010.28 1010.15 1010.55 1010.07 1009.71 1009.03 1008.31 1007.84 1007.51 1006.55 1005.91 1005.90 1005.65 1005.76 1005.99 1005.81 1005.30 1004.05 1003.34 1003.13 997.96 998.65 998.02 998.11 998.04 998.09 997.81 997.64
1018.28 1017.57 1017.35 1017.52 1017.37 1017.28 1017.03 1016.77 1016.77 1015.77 1015.03 1014.46 1013.87 1013.34 1012.74 1011.87 1011.23 1010.95 1010.66 1010.67 1010.75 1010.54 1009.28 1008.03 1007.42 1007.34 1006.83 1006.22 1005.80 1005.53 1005.11 1005.15 1005.31 1004.60 1002.93 1003.04 1002.69 998.33 997.68 998.05 998.03 997.66 997.96 997.67 997.41
1017.97 1017.52 1017.42 1017.28 1017.17 1017.16 1016.77 1016.57 1016.25 1015.86 1015.38 1014.89 1014.47 1013.72 1012.94 1012.43 1011.92 1011.71 1011.21 1010.94 1011.21 1011.49 1010.46 1009.03 1007.64 1007.19 1006.98 1006.16 1005.15 1004.96 1004.68 1003.68 1003.24 1002.67 1002.51 1003.05 1000.44 998.33 998.12 997.73 997.66 997.80 997.95 997.70 997.28
1017.69 1017.39 1017.18 1016.97 1016.95 1016.92 1016.55 1016.23 1016.13 1016.08 1016.03 1015.61 1014.75 1014.01 1013.46 1013.32 1013.34 1012.54 1011.87 1011.51 1011.23 1011.18 1011.11 1009.73 1008.84 1008.21 1007.12 1006.35 1005.35 1004.71 1004.47 1004.07 1003.55 1003.05 1002.14 1001.00 999.47 998.58 998.22 997.84 997.53 997.67 997.80 997.48 996.90
1018.22 1017.62 1017.12 1016.82 1016.75 1016.59 1016.59 1016.66 1016.48 1016.31 1016.18 1015.92 1015.45 1014.89 1014.29 1013.91 1013.74 1013.25 1012.30 1011.80 1011.46 1011.31 1011.34 1010.27 1009.11 1008.08 1007.56 1006.30 1005.10 1004.80 1004.16 1004.27 1003.79 1002.39 1001.15 999.95 999.06 997.59 997.34 997.46 998.09 998.08 998.17 997.81 997.08
1018.17 1017.59 1017.06 1016.79 1016.58 1016.84 1017.28 1017.29 1016.92 1016.49 1016.39 1016.17 1015.72 1015.37 1014.99 1014.55 1014.23 1013.62 1012.74 1011.90 1011.70 1011.26 1011.04 1010.59 1009.89 1008.35 1007.67 1007.09 1005.92 1005.10 1004.53 1004.11 1003.53 1002.69 1001.09 999.52 998.29 997.66 997.23 998.08 998.53 998.56 998.48 997.76 997.27
1019.01 1017.90 1017.29 1016.92 1017.25 1018.26 1018.03 1017.92 1017.48 1016.69 1016.46 1016.26 1015.97 1015.79 1015.66 1015.33 1014.62 1013.90 1012.88 1012.18 1011.80 1011.61 1011.06 1010.87 1010.24 1008.71 1007.66 1006.73 1006.59 1006.24 1005.55 1005.29 1004.01 1003.04 1002.15 1000.98 999.24 998.36 998.23 998.61 998.76 998.72 998.25 997.77 997.42
1019.98 1019.16 1017.70 1017.33 1018.20 1018.66 1018.49 1018.05 1017.60 1016.89 1016.58 1016.42 1016.16 1015.99 1016.03 1015.74 1015.13 1013.86 1012.88 1012.00 1011.93 1011.66 1011.15 1010.98 1010.29 1008.89 1007.24 1007.17 1007.03 1006.54 1006.22 1005.77 1005.23 1004.41 1002.45 1001.21 999.25 998.58 998.46 998.50 999.04 998.74 998.21 997.71 997.16
1020.56 1019.78 1018.96 1018.89 1019.61 1019.49 1019.16 1018.23 1017.61 1016.90 1016.59 1016.82 1016.49 1016.02 1015.85 1015.29 1014.93 1013.58 1012.91 1012.32 1012.04 1011.91 1011.74 1011.48 1010.57 1009.88 1008.76 1007.93 1007.95 1007.36 1006.69 1006.25 1005.69 1004.20 1002.84 1001.29 1000.77 998.98 998.91 999.14 998.76 998.64 998.38 997.77 997.32
1021.33 1021.42 1021.29 1020.34 1019.87 1019.86 1019.73 1018.85 1017.91 1017.10 1016.79 1016.49 1016.06 1016.02 1016.07 1014.97 1014.11 1013.16 1012.80 1012.27 1012.06 1012.24 1012.06 1011.77 1010.31 1009.78 1009.10 1008.61 1008.15 1007.58 1006.87 1006.22 1005.42 1004.49 1003.43 1002.10 1001.27 1000.26 999.98 999.97 999.54 999.10 998.32 997.60 997.08
1022.29 1022.19 1021.67 1021.15 1020.58 1019.98 1019.37 1018.57 1017.90 1017.41 1017.33 1016.35 1016.09 1015.59 1015.35 1014.75 1014.17 1013.08 1012.93 1012.59 1012.53 1012.12 1012.05 1011.40 1010.33 1009.73 1008.66 1008.38 1007.70 1006.95 1006.30 1005.74 1004.95 1004.19 1003.22 1002.60 1001.80 1001.59 1000.41 1000.22 999.53 999.16 998.53 997.65 997.09
1022.68 1022.70 1022.35 1021.26 1020.66 1020.13 1019.28 1018.76 1018.19 1018.03 1016.71 1016.14 1015.67 1015.09 1014.40 1013.57 1013.25 1012.51 1012.19 1011.92 1012.34 1012.35 1011.95 1011.62 1010.66 1009.98 1008.43 1007.90 1007.29 1006.10 1004.84 1004.54 1003.99 1003.45 1002.69 1001.82 1001.64 1001.30 999.57 999.70 999.49 999.11 998.59 997.82 997.25
Wind_Speed
16 16 17 17 17 17 17 17 16 15 15 16 16 17 18 19 19 3 4 4 8 15 14 10 3 7 3 7 5 4 8 13 17 13 11 1 5 1 4 6 6 5 3 6 2
16 16 17 17 18 18 18 17 17 17 16 15 15 16 17 18 9 6 5 6 10 12 5 5 8 12 7 7 8 10 11 20 7 15 10 11 5 7 6 10 8 11 5 13 4
17 17 18 18 19 19 19 18 17 16 15 15 14 15 16 14 5 5 4 12 15 12 5 2 4 10 12 7 11 11 20 21 15 15 13 17 18 9 12 19 15 9 8 13 11
16 17 17 18 19 19 19 18 18 17 16 14 12 13 15 4 4 3 10 12 17 11 1 2 6 10 11 18 15 15 19 22 13 14 9 16 15 13 14 25 12 12 13 13 14
17 17 17 18 19 19 19 17 16 16 15 13 10 9 5 4 5 3 11 14 7 6 2 2 11 11 15 11 17 25 21 14 18 18 13 12 18 15 18 22 16 18 20 17 12
18 19 19 20 20 20 20 19 17 14 12 8 6 2 1 6 2 4 7 10 6 6 5 3 4 8 11 16 20 12 20 24 18 12 9 16 23 15 14 20 14 14 19 21 16
19 20 20 20 21 21 22 20 18 16 9 3 6 3 1 6 1 9 10 4 3 2 5 6 8 7 3 13 13 21 18 9 14 21 20 14 31 30 25 22 23 20 19 19 16
19 19 21 21 22 22 22 21 18 13 2 6 8 3 6 4 6 11 4 5 7 7 4 6 5 8 9 9 9 11 17 22 25 13 7 14 31 28 13 19 21 21 18 12 13
21 20 22 22 23 23 24 24 17 3 7 10 4 2 6 4 5 6 5 8 10 5 6 4 5 7 7 12 9 15 21 26 25 22 14 17 32 23 16 18 17 16 16 14 14
21 20 21 21 21 21 23 19 1 8 6 4 3 4 4 11 12 13 12 11 7 9 4 4 6 10 13 17 23 21 27 25 24 9 22 19 35 21 17 13 18 17 16 16 17
22 21 21 21 21 21 11 2 3 1 1 5 7 5 12 7 13 7 9 5 4 7 8 5 10 22 23 21 24 12 16 23 17 13 14 23 30 26 21 22 24 24 22 19 19
22 23 23 22 21 19 4 5 5 1 10 5 11 11 16 7 8 9 2 3 5 15 6 6 18 17 14 15 20 24 21 11 9 5 9 19 26 19 13 18 19 20 21 21 19
23 22 22 21 22 3 3 5 6 4 3 8 5 5 7 7 6 7 3 2 8 13 13 14 13 8 16 19 18 20 25 20 9 4 10 11 20 21 17 19 20 20 20 19 18
24 23 19 18 1 4 0 7 3 5 3 4 2 1 6 9 5 10 3 4 4 12 14 11 14 14 17 19 20 21 14 18 18 11 13 4 13 17 16 18 18 17 17 18 17
25 23 15 5 3 2 3 5 3 3 5 6 2 5 15 4 9 1 1 4 11 15 7 16 9 10 18 15 15 17 7 11 11 16 15 19 13 20 16 21 23 20 18 17 22
26 23 7 3 3 4 6 3 3 3 4 2 5 10 14 6 13 7 10 3 5 8 13 18 14 8 8 11 14 10 18 18 10 9 15 17 13 19 18 21 20 15 14 16 16
28 17 2 3 3 2 3 2 2 3 5 4 7 12 15 7 12 10 13 7 5 7 6 9 18 16 12 12 6 10 12 10 12 12 17 11 13 20 10 10 7 5 9 13 13
25 4 2 2 4 4 1 2 3 2 4 7 7 16 5 9 8 13 9 7 2 1 5 4 5 6 3 13 13 14 14 9 17 13 14 13 15 10 17 18 16 13 7 10 11
15 1 1 4 2 1 1 2 1 2 4 8 15 4 3 5 6 9 10 8 4 5 7 6 3 9 6 9 13 10 12 14 5 1 8 11 22 17 14 11 8 5 7 15 17
3 2 2 8 3 1 1 1 2 2 5 5 5 3 6 8 9 11 6 3 9 7 3 5 7 5 9 9 5 6 6 10 6 7 10 9 17 9 3 12 2 8 12 16 18
2 0 3 7 0 4 2 3 4 4 4 4 4 8 8 11 6 8 6 8 7 9 8 7 4 2 4 5 6 4 7 4 6 10 7 6 4 5 17 7 7 8 12 18 17
4 0 5 4 2 2 1 5 5 4 2 5 6 6 6 6 8 7 7 6 7 9 9 4 6 7 7 5 4 9 6 3 7 18 12 8 5 7 10 8 12 14 18 19 15
4 3 3 3 2 2 4 4 4 4 5 4 4 1 5 6 6 7 9 8 12 8 4 7 1 7 7 6 5 1 4 4 6 6 15 15 8 8 5 13 13 18 19 19 18
3 4 3 4 1 2 5 3 4 6 7 1 9 8 5 8 9 11 12 8 6 7 12 10 6 9 9 8 9 11 11 10 8 10 14 19 19 25 20 21 22 21 19 19 17
4 3 3 5 2 6 3 5 7 4 3 6 4 6 6 6 17 18 13 12 8 6 13 7 10 11 14 17 18 18 19 18 18 17 15 15 19 22 19 18 20 19 20 20 18
3 4 2 4 7 6 3 3 8 5 4 7 6 11 13 14 17 23 21 17 9 6 4 3 6 10 17 15 18 19 19 19 21 21 23 22 23 21 24 23 22 19 20 19 18
1 1 1 3 4 4 2 3 7 14 9 12 13 15 16 17 15 20 18 18 9 4 7 5 5 4 7 6 7 12 18 21 19 18 17 22 18 18 25 21 19 17 19 20 20
Wind_Direction
357 354 351 350 347 345 343 340 338 336 335 334 336 335 331 325 322 329 289 315 302 304 313 307 188 201 185 194 191 156 231 242 233 216 226 222 239 280 299 272 307 334 57 342 70
355 351 348 345 343 340 338 336 335 333 330 330 330 330 326 326 318 285 258 346 334 307 282 229 217 174 204 208 190 202 227 234 226 229 230 236 224 300 298 296 284 308 235 2 96
351 348 346 343 339 337 334 332 329 327 327 327 328 325 321 325 270 146 54 19 5 343 226 252 255 208 215 205 197 203 235 235 229 228 231 247 259 237 272 275 270 271 302 332 327
346 343 341 338 335 333 331 330 328 326 326 325 324 322 316 295 17 107 359 360 351 2 13 217 209 206 223 216 214 239 227 242 247 239 230 237 252 252 249 256 273 279 288 283 279
343 342 340 337 333 330 327 323 321 321 323 320 317 324 330 346 268 308 346 343 7 358 23 287 226 225 223 219 227 235 239 240 241 253 252 265 246 248 254 263 264 273 275 269 260
343 341 340 337 333 328 324 319 318 321 322 302 277 293 12 337 208 268 331 330 15 39 357 256 245 245 268 246 224 236 241 245 245 235 235 251 265 239 249 253 250 255 263 267 265
342 340 338 335 331 326 322 316 318 321 314 226 200 177 191 247 280 309 307 273 213 176 338 257 252 249 282 254 264 253 255 237 236 238 247 252 278 243 244 256 259 254 256 261 253
340 339 338 336 331 327 322 314 316 319 358 163 159 163 258 236 300 294 286 279 237 230 208 259 254 273 240 288 260 241 235 244 235 209 224 186 259 265 220 242 251 264 261 255 248
342 340 339 336 330 326 320 312 317 354 110 134 134 241 286 282 296 324 208 282 294 240 200 187 156 219 232 227 250 225 236 227 238 212 197 193 254 257 255 240 247 248 263 276 282
340 337 335 332 327 322 314 308 32 117 122 170 148 257 245 325 324 309 293 264 265 280 137 192 192 216 219 207 217 225 227 236 237 217 213 217 249 251 267 269 268 262 263 268 270
334 334 333 331 328 325 328 121 350 194 51 273 297 284 288 282 293 263 297 270 231 257 266 210 223 220 223 229 248 260 265 245 259 229 208 221 244 250 246 259 261 269 276 276 278
333 333 331 330 329 324 303 74 99 131 310 286 261 250 263 265 282 308 175 246 237 242 185 219 235 252 250 250 244 246 255 267 254 246 237 245 250 253 250 256 258 265 270 275 280
331 332 327 328 322 331 359 127 118 132 271 298 248 252 284 195 279 313 184 289 267 264 232 239 265 251 247 239 244 236 241 240 251 296 249 274 266 254 245 248 253 257 263 265 264
329 330 324 327 222 340 267 132 324 194 272 280 264 87 330 301 260 308 217 273 233 272 247 245 254 237 237 238 229 241 235 240 239 253 244 201 277 259 252 252 251 259 262 260 268
329 329 322 292 320 225 67 343 132 212 305 347 355 335 325 297 320 347 350 215 285 277 257 242 275 231 225 234 226 235 206 202 215 227 243 239 264 260 253 256 257 255 256 266 262
334 335 333 120 184 262 319 311 196 224 262 352 331 340 345 326 343 306 335 257 279 282 260 258 252 281 289 213 218 226 214 237 251 247 236 231 233 268 247 258 262 264 260 272 278
336 337 145 162 41 324 310 151 238 235 350 349 327 331 324 314 330 334 328 356 1 309 279 268 238 242 254 256 219 212 189 188 213 215 237 212 220 246 265 266 271 224 323 305 287
335 343 157 242 297 314 194 156 242 51 309 328 326 315 294 355 340 331 315 316 114 225 283 327 263 180 336 230 241 213 200 208 219 214 229 208 229 240 230 267 273 266 314 329 327
333 338 97 349 355 195 293 79 313 319 335 314 318 304 319 357 334 328 317 300 332 358 333 312 235 285 285 317 229 193 212 224 282 136 228 195 243 270 257 275 255 292 329 351 342
347 328 43 325 332 20 50 301 266 312 329 314 297 305 307 328 321 339 307 324 341 351 327 303 296 163 294 329 191 249 216 192 210 207 208 204 240 233 198 207 27 35 4 342 346
18 133 8 340 102 48 65 287 291 296 331 307 289 296 293 315 306 318 279 310 4 341 340 328 272 294 285 193 283 242 233 249 249 240 249 243 211 218 223 94 47 14 351 352 346
339 6 5 319 48 42 351 315 304 295 311 298 270 310 307 332 303 287 259 286 334 333 325 328 298 288 272 272 264 252 288 260 257 213 240 284 282 113 118 70 8 351 346 344 344
354 296 343 321 45 4 321 292 275 292 322 315 294 231 270 283 292 259 270 283 310 293 300 353 316 309 309 159 131 206 195 237 256 262 250 241 227 184 256 324 342 335 338 336 337
341 340 360 46 59 37 336 319 310 288 292 273 270 274 248 272 264 275 273 290 282 294 298 313 260 255 268 298 307 292 290 284 272 251 247 243 259 270 285 310 320 329 330 326 325
14 42 14 329 11 326 293 300 287 310 291 298 250 243 283 294 303 278 280 291 267 270 296 271 256 251 254 265 276 276 277 277 261 255 252 263 253 266 287 299 311 314 314 315 318
19 357 11 296 295 293 272 263 295 316 301 290 251 289 300 283 286 289 291 279 259 228 227 248 264 251 267 266 259 266 263 261 257 257 256 259 262 270 278 280 281 296 300 303 307
145 195 230 289 313 307 277 310 307 326 282 246 286 299 291 292 295 284 279 274 246 221 217 219 238 239 263 284 301 274 253 245 255 256 257 257 264 261 267 272 277 294 294 295 297